Weather in Dunoon

United Kingdom     55°57′17″N   4°55′37″W
temp.,
°C
wind,
m/s
gust,
m/s
humid.,
%
clouds,
%
prec.,
mm/h
press.,
hPa
HPBL,
m
4 december, sat
sat400:00+4ssw2495100 14.5 989359
03:00+4sw1490100 7.1 988139
06:00+2w118925 7.4 98810
09:00+2wnw2997100 0.5 989610
12:00+4nw81686100 3.3 9911224
15:00+4nw61578100 0.1 9941192
18:00+3nw4128364 0.1 999635
21:00+3nw4118571 0.0 1003511
5 december, sun
sun500:00+1nnw249134 0.0 100686
03:000nw23891 0.0 100959
06:000nw23903 0.0 101264
09:00−1nnw23895 0.0 101446
12:00+2n12782 0.0 1015113
15:00+1nne11845 0.0 101510
18:00−1e1186100 0.0 101510
21:00−1e2187100 0.0 101421
6 december, mon
mon600:000ese2287100 0.0 101080
03:00+1se31095100 0.8 1005738
06:00+3s61398100 8.7 9991282
09:00+2wnw81897100 9.9 9961279
12:00+3wnw6148598 13.3 9961260
15:00+3wnw5128443 0.7 995780
18:00+3nw6147956 1.2 9991021
21:00+3nw6137751 0.8 1002958
7 december, tue
tue700:00+1wnw310755 0.9 1004330
03:00−2ene00897 0.0 100510
06:00−2ese1188100 0.0 100411
09:00−1e2292100 0.0 100250
12:00+1ese51484100 0.0 997953
15:00+1ese91882100 0.4 9911231
18:000e92296100 4.0 9871458
21:00+1e81797100 1.1 9861346
8 december, wed
wed800:00+2e71496100 1.5 985954
03:00+2e61397100 0.4 985774
06:00+2e61290100 0.4 987821
09:00+3e71587100 0.0 990794
12:00+4ene61288100 0.0 994845
15:00+3ne3892100 0.0 998509
18:00+1ene379595 0.1 1003207
21:00+1ne289865 0.0 1006282